Regional Weather Roundup
Issued by NWS Upton, NY

Current Version | Previous Version | Graphics & Text | Print | Product List | Glossary Off
Versions: 1 2 3 4 5 6 7 8 9 10 11 12 13 14 15 16 17 18 19 20 21 22 23 24 25 26 27 28 29 30 31 32 33 34 35 36 37 38 39 40 41 42 43 44 45 46 47
000 ASUS41 KOKX 220005 RWROKX REGIONAL WEATHER ROUNDUP NATIONAL WEATHER SERVICE NEW YORK NY 700 PM EST SUN DEC 21 2014 NOTE: "FAIR" INDICATES FEW OR NO CLOUDS BELOW 12,000 FEET WITH NO SIGNIFICANT WEATHER AND/OR OBSTRUCTIONS TO VISIBILITY. NYZ071-072-176-178-NJZ106-104-220100- NEW YORK CITY METRO AREA CITY SKY/WX TMP DP RH WIND PRES REMARKS CENTRAL PARK CLOUDY 34 27 75 NE6 30.36R WCI 29 LAGUARDIA APRT CLOUDY 34 29 82 N8 30.34R WCI 27 KENNEDY INTL CLOUDY 36 29 75 N9 30.35R WCI 29 NEWARK/LIBERTY CLOUDY 36 27 69 N8 30.34R WCI 30 BRNX BOT. GARD N/A 34 32 93 N3 30.33R TETERBORO CLOUDY 35 27 72 N6 30.34R WCI 30 $$ NYZ177-179-078>081-220100- LONG ISLAND NEW YORK CITY SKY/WX TMP DP RH WIND PRES REMARKS FARMINGDALE CLOUDY 36 32 85 N5 30.33R WCI 32 ISLIP DRIZZLE 36 33 89 N7 30.30R WCI 30 SHIRLEY CLOUDY 37 33 85 N8 30.32R WCI 31 WESTHAMPTON CLOUDY 38 35 89 N7 30.32R WCI 33 MONTAUK POINT N/A 39 36 89 NE9 30.31R WCI 33 $$ NYZ052-065-067-220100- HUDSON VALLEY CITY SKY/WX TMP DP RH WIND PRES REMARKS WHITE PLAINS MOCLDY 32 29 88 NW8 30.31R WCI 25 NEWBURGH CLOUDY 32 28 86 VRB5 30.34R WCI 27 MONTGOMERY CLOUDY 32 27 81 N3 30.33R POUGHKEEPSIE CLOUDY 33 26 75 N5 30.35R WCI 29 ALBANY CLOUDY 31 23 72 N3 30.37R $$ NJZ001-105-106-008-010-013-015-019>022-104-220100- NEW JERSEY CITY SKY/WX TMP DP RH WIND PRES REMARKS NEWARK/LIBERTY CLOUDY 36 27 69 N8 30.34R WCI 30 TETERBORO CLOUDY 35 27 72 N6 30.34R WCI 30 CALDWELL CLOUDY 34 26 72 VRB5 30.34R WCI 30 MORRISTOWN CLOUDY 36 28 75 NE6 30.34R WCI 31 SOMERVILLE CLOUDY 36 25 64 N3 30.32R SUSSEX CLOUDY 33 27 78 N6 30.32R WCI 28 ANDOVER N/A 32 26 78 CALM 30.32R TRENTON CLOUDY 34 23 64 NW5 30.33R WCI 30 MILLVILLE CLEAR 26 21 81 CALM 30.33S ATLANTIC CITY CLEAR 28 20 71 N5 30.34R WCI 23 WRIGHTSTOWN CLOUDY 33 25 72 W2 30.31R TOMS RIVER CLOUDY 32 25 74 CALM 30.32F BELMAR CLOUDY 36 25 64 NW3 30.32R $$ PAZ047>061-062-071-220100- EASTERN PENNSYLVANIA CITY SKY/WX TMP DP RH WIND PRES REMARKS PHILADELPHIA PTCLDY 34 22 61 NE3 30.35R ALLENTOWN CLEAR 28 20 71 CALM 30.33R SCRANTON CLOUDY 30 20 66 N6 30.31R WCI 24 $$ CTZ002-004>006-009-010-012-RIZ004-006-007-MAZ004-011-015-220100- SOUTHERN NEW ENGLAND IN CT CITY SKY/WX TMP DP RH WIND PRES REMARKS BRADLEY INTL CLOUDY 34 30 85 N6 30.33R WCI 29 HARTFORD CLOUDY 33 30 88 N7 30.34R WCI 27 DANBURY CLOUDY 33 28 81 N5 30.33R HAZE WCI 29 WTRBRY/OXFORD LGT SNOW 32 25 74 NE7 30.31R FOG WCI 26 BRIDGEPORT CLOUDY 35 33 92 N9 30.33R WCI 28 MERIDEN CLOUDY 34 30 85 VRB6 30.33R WCI 29 NEW HAVEN CLOUDY 36 31 82 N12 30.32R WCI 28 CHESTER CLOUDY 34 32 93 N7 30.31R FOG WCI 28 GROTON CLOUDY 34 32 92 N9 30.32R WCI 27 WILLIMANTIC CLOUDY 34 29 82 N5 30.33R WCI 30 IN RI CITY SKY/WX TMP DP RH WIND PRES REMARKS PROVIDENCE CLOUDY 34 30 85 N9 30.33R WCI 27 BLOCK ISLAND CLOUDY 37 34 87 NE10G18 30.29R WCI 30 WESTERLY CLOUDY 35 31 85 N8 30.32R WCI 29 IN MA CITY SKY/WX TMP DP RH WIND PRES REMARKS BOSTON CLOUDY 34 28 79 N5 30.35R WCI 30 WORCESTER CLOUDY 30 27 88 NE6 30.30R WCI 24 WESTFIELD CLOUDY 33 30 88 N6 30.33R WCI 28 PROVINCETOWN CLOUDY 43 34 70 NE5 30.31S NANTUCKET CLOUDY 41 35 79 NE5 30.29R $$ ANZ330-335-338-340-345-350-353-355-220100- COASTAL MARINE OBSERVATIONS STATION/POSITION TIME SKY/WX TEMP WIND PRES VSBY WAVE AIR SEA DIR/SP/G HT/PER (UTC) (F) (DEG/KT/KT) (MB) (MI) (FT/S) NY HARB ENTRANCE 0000 38 47 350/ 8/ 12 1027.1 1/ 6 4S FIRE IS 0000 46 N/A 2/ 5 20S FIRE ISLAND 2300 39 49 1026.2 2/ 5 23SW MTP 0000 N/A 3/ 5 HUDSON CANYON 0000 40 56 350/ 6/ 8 1025.9 2/10 EXECUTION ROCKS 0000 35 41 330/ 8/ 10 N/A WESTERN LI SOUND 2300 35 10/ 8/ 10 N/A 0 CENTRAL LI SOUND 2300 35 44 20/ 12/ 14 N/A 2/ 4 EASTERN LI SOUND NOT AVBL ROBBINS REEF 0000 36 130/ 5/ 7 1026.0 $$ >>>>>>>>>>>>>>>>>>>>>>>>>>>> KEY <<<<<<<<<<<<<<<<<<<<<<<<<<< > < > SKY/WX - SKY CONDITION/PRESENT WEATHER < > TMP - TEMPERATURE IN FAHRENHEIT < > DP - DEWPOINT IN FAHRENHEIT < > RH - RELATIVE HUMIDITY IN PERCENT < > WIND - DIRECTION AND SPEED IN MPH < > PRES - MEAN SEA LEVEL PRESSURE IN INCHES OF HG < > WCI - WIND CHILL INDEX < > VSB - VISIBILITY IN MILES < > HX - HEAT INDEX < > TC - TEMPERATURE IN CELSIUS < > VRB - VARIABLE WIND DIRECTION < > < >>>>>>>>>>>>>>>>>>>>>>>>>>>> KEY <<<<<<<<<<<<<<<<<<<<<<<<<<<

USA.gov is the U.S. government's official web portal to all federal, state and local government web resources and services.